TAM3708 SBBR-SBPS

Flight info

Callsign TAM3708
Flight time 1h 21m
Altitude 35000
Route SAVPU DCT EVPIV DCT IVPEG DCT
Aircraft A320/M-SDE3FGHIRWY/LB1

Departure

Time 2026-04-22 15:25
Airport Presidente Juscelino Kubitschek International Airport (SBBR)

Arrival

Time 2026-04-22 16:46
Airport Porto Seguro International Airport (SBPS)
Time Latitude Longitude Altitude Speed Heading
2026-04-22 14:47 -15.87127 -47.91861 3472 ft 0 kts 176°
2026-04-22 15:08 -15.87110 -47.91863 3499 ft 4 kts 174°
2026-04-22 15:08 -15.87088 -47.91860 3460 ft 3 kts 207°
2026-04-22 15:08 -15.87070 -47.91845 3471 ft 4 kts 251°
2026-04-22 15:09 -15.87066 -47.91818 3471 ft 3 kts 266°
2026-04-22 15:09 -15.87067 -47.91830 3471 ft 4 kts 264°
2026-04-22 15:09 -15.87067 -47.91858 3472 ft 4 kts 276°
2026-04-22 15:09 -15.87058 -47.91883 3472 ft 4 kts 298°
2026-04-22 15:10 -15.87037 -47.91891 3472 ft 4 kts 359°
2026-04-22 15:10 -15.87019 -47.91877 3472 ft 4 kts 58°
2026-04-22 15:10 -15.87016 -47.91861 3472 ft 0 kts 86°
2026-04-22 15:13 -15.87016 -47.91850 3472 ft 3 kts 86°
2026-04-22 15:13 -15.87014 -47.91813 3472 ft 6 kts 87°
2026-04-22 15:13 -15.87012 -47.91762 3472 ft 8 kts 87°
2026-04-22 15:13 -15.87013 -47.91702 3471 ft 9 kts 110°
2026-04-22 15:14 -15.87071 -47.91685 3472 ft 10 kts 178°
2026-04-22 15:14 -15.87145 -47.91680 3472 ft 11 kts 175°
2026-04-22 15:14 -15.87224 -47.91674 3472 ft 10 kts 176°
2026-04-22 15:14 -15.87299 -47.91670 3471 ft 12 kts 176°
2026-04-22 15:15 -15.87387 -47.91664 3471 ft 13 kts 177°
2026-04-22 15:15 -15.87472 -47.91659 3470 ft 11 kts 176°
2026-04-22 15:15 -15.87560 -47.91653 3467 ft 15 kts 177°
2026-04-22 15:15 -15.87652 -47.91647 3464 ft 11 kts 176°
2026-04-22 15:16 -15.87735 -47.91659 3462 ft 12 kts 234°
2026-04-22 15:16 -15.87739 -47.91722 3463 ft 8 kts 264°
2026-04-22 15:16 -15.87743 -47.91781 3464 ft 8 kts 265°
2026-04-22 15:16 -15.87747 -47.91833 3466 ft 6 kts 266°
2026-04-22 15:17 -15.87749 -47.91869 3466 ft 5 kts 267°
2026-04-22 15:17 -15.87750 -47.91889 3467 ft 0 kts 267°
2026-04-22 15:17 -15.87752 -47.91930 3468 ft 8 kts 266°
2026-04-22 15:17 -15.87753 -47.91939 3468 ft 0 kts 265°
2026-04-22 15:18 -15.87753 -47.91940 3468 ft 1 kts 266°
2026-04-22 15:18 -15.87753 -47.91948 3468 ft 2 kts 266°
2026-04-22 15:18 -15.87756 -47.91979 3469 ft 6 kts 266°
2026-04-22 15:19 -15.87760 -47.92040 3470 ft 10 kts 266°
2026-04-22 15:19 -15.87763 -47.92104 3471 ft 8 kts 266°
2026-04-22 15:19 -15.87767 -47.92171 3472 ft 10 kts 266°
2026-04-22 15:19 -15.87772 -47.92244 3473 ft 9 kts 266°
2026-04-22 15:20 -15.87775 -47.92282 3474 ft 7 kts 265°
2026-04-22 15:20 -15.87782 -47.92384 3475 ft 18 kts 266°
2026-04-22 15:20 -15.87790 -47.92516 3475 ft 17 kts 266°
2026-04-22 15:20 -15.87797 -47.92632 3477 ft 15 kts 266°
2026-04-22 15:21 -15.87803 -47.92726 3477 ft 12 kts 266°
2026-04-22 15:21 -15.87810 -47.92830 3481 ft 17 kts 266°
2026-04-22 15:21 -15.87819 -47.92966 3479 ft 20 kts 266°
2026-04-22 15:21 -15.87827 -47.93096 3484 ft 16 kts 266°
2026-04-22 15:22 -15.87834 -47.93191 3484 ft 10 kts 266°
2026-04-22 15:22 -15.87837 -47.93247 3501 ft 7 kts 266°
2026-04-22 15:22 -15.87841 -47.93306 3495 ft 9 kts 266°
2026-04-22 15:22 -15.87853 -47.93382 3503 ft 12 kts 250°
2026-04-22 15:23 -15.87929 -47.93379 3501 ft 17 kts 126°
2026-04-22 15:23 -15.87976 -47.93280 3492 ft 13 kts 119°
2026-04-22 15:23 -15.88017 -47.93219 3489 ft 0 kts 87°
2026-04-22 15:24 -15.88011 -47.93119 3485 ft 49 kts 86°
2026-04-22 15:24 -15.87970 -47.92488 3479 ft 122 kts 86°
2026-04-22 15:24 -15.87891 -47.91396 3564 ft 170 kts 85°
2026-04-22 15:25 -15.87798 -47.90127 4324 ft 181 kts 86°
2026-04-22 15:25 -15.87709 -47.88797 4974 ft 192 kts 84°
2026-04-22 15:25 -15.87614 -47.87352 5264 ft 216 kts 85°
2026-04-22 15:25 -15.87511 -47.85710 5651 ft 240 kts 86°
2026-04-22 15:26 -15.87398 -47.83896 6154 ft 261 kts 86°
2026-04-22 15:26 -15.87281 -47.81997 6988 ft 264 kts 86°
2026-04-22 15:26 -15.87162 -47.80076 7727 ft 270 kts 86°
2026-04-22 15:26 -15.87038 -47.78105 8543 ft 277 kts 86°
2026-04-22 15:27 -15.87088 -47.76100 9399 ft 281 kts 102°
2026-04-22 15:27 -15.87824 -47.74210 10239 ft 285 kts 117°
2026-04-22 15:27 -15.88789 -47.72328 10596 ft 307 kts 118°
2026-04-22 15:27 -15.89826 -47.70325 11076 ft 321 kts 118°
2026-04-22 15:28 -15.90900 -47.68255 11765 ft 327 kts 118°
2026-04-22 15:28 -15.91981 -47.66168 12558 ft 330 kts 118°
2026-04-22 15:28 -15.93071 -47.64062 13350 ft 333 kts 118°
2026-04-22 15:28 -15.94161 -47.61958 14060 ft 336 kts 118°
2026-04-22 15:29 -15.95273 -47.59804 14690 ft 341 kts 118°
2026-04-22 15:29 -15.96398 -47.57620 15307 ft 345 kts 118°
2026-04-22 15:29 -15.97537 -47.55409 15944 ft 348 kts 118°
2026-04-22 15:30 -15.99444 -47.51699 16988 ft 354 kts 118°
2026-04-22 15:30 -16.01001 -47.48661 17767 ft 359 kts 118°
2026-04-22 15:30 -16.02184 -47.46358 18353 ft 362 kts 118°
2026-04-22 15:30 -16.03384 -47.44025 18869 ft 366 kts 118°
2026-04-22 15:31 -16.04584 -47.41694 19407 ft 368 kts 118°
2026-04-22 15:31 -16.05799 -47.39335 19896 ft 372 kts 118°
2026-04-22 15:31 -16.07028 -47.36944 20338 ft 377 kts 118°
2026-04-22 15:31 -16.08267 -47.34528 20849 ft 380 kts 118°
2026-04-22 15:32 -16.09499 -47.32124 21370 ft 383 kts 118°
2026-04-22 15:32 -16.10758 -47.29668 21861 ft 387 kts 118°
2026-04-22 15:32 -16.12031 -47.27188 22340 ft 391 kts 118°
2026-04-22 15:32 -16.13319 -47.24679 22840 ft 394 kts 118°
2026-04-22 15:33 -16.14616 -47.22152 23363 ft 397 kts 118°
2026-04-22 15:33 -16.15919 -47.19606 23829 ft 401 kts 118°
2026-04-22 15:33 -16.17233 -47.17037 24237 ft 404 kts 118°
2026-04-22 15:33 -16.18558 -47.14449 24641 ft 407 kts 118°
2026-04-22 15:34 -16.19890 -47.11845 25073 ft 409 kts 118°
2026-04-22 15:34 -16.21226 -47.09233 25536 ft 409 kts 118°
2026-04-22 15:34 -16.22566 -47.06609 25928 ft 412 kts 118°
2026-04-22 15:34 -16.23917 -47.03965 26299 ft 415 kts 118°
2026-04-22 15:35 -16.24819 -47.02204 26574 ft 416 kts 118°
2026-04-22 15:35 -16.26648 -46.98632 27120 ft 419 kts 118°
2026-04-22 15:35 -16.28019 -46.95950 27490 ft 421 kts 118°
2026-04-22 15:35 -16.29381 -46.93282 27817 ft 425 kts 118°
2026-04-22 15:36 -16.30775 -46.90558 28226 ft 425 kts 118°
2026-04-22 15:36 -16.32164 -46.87839 28665 ft 426 kts 118°
2026-04-22 15:36 -16.33554 -46.85112 29070 ft 427 kts 118°
2026-04-22 15:36 -16.34948 -46.82376 29448 ft 429 kts 118°
2026-04-22 15:37 -16.36347 -46.79627 29813 ft 430 kts 118°
2026-04-22 15:37 -16.37752 -46.76867 30157 ft 432 kts 118°
2026-04-22 15:37 -16.39163 -46.74095 30457 ft 434 kts 119°
2026-04-22 15:37 -16.40579 -46.71313 30757 ft 435 kts 119°
2026-04-22 15:38 -16.41998 -46.68521 31047 ft 437 kts 119°
2026-04-22 15:38 -16.44775 -46.62862 31680 ft 439 kts 113°
2026-04-22 15:38 -16.45687 -46.59830 32093 ft 439 kts 104°
2026-04-22 15:39 -16.46088 -46.56674 32505 ft 441 kts 94°
2026-04-22 15:39 -16.46043 -46.53513 32892 ft 441 kts 91°
2026-04-22 15:39 -16.45945 -46.50322 33288 ft 440 kts 91°
2026-04-22 15:39 -16.45852 -46.47131 33704 ft 439 kts 91°
2026-04-22 15:40 -16.45762 -46.43958 34112 ft 438 kts 91°
2026-04-22 15:40 -16.45675 -46.40788 34479 ft 436 kts 91°
2026-04-22 15:40 -16.45588 -46.37639 34821 ft 435 kts 91°
2026-04-22 15:40 -16.45530 -46.35548 34970 ft 436 kts 92°
2026-04-22 15:41 -16.45358 -46.29312 35049 ft 425 kts 92°
2026-04-22 15:41 -16.45180 -46.23176 35051 ft 422 kts 92°
2026-04-22 15:42 -16.44997 -46.17064 35048 ft 422 kts 92°
2026-04-22 15:42 -16.44819 -46.10955 35049 ft 422 kts 92°
2026-04-22 15:43 -16.44645 -46.04847 35045 ft 422 kts 92°
2026-04-22 15:43 -16.44458 -45.98743 35041 ft 422 kts 92°
2026-04-22 15:44 -16.44265 -45.92672 35040 ft 422 kts 92°
2026-04-22 15:44 -16.44079 -45.86568 35039 ft 422 kts 92°
2026-04-22 15:45 -16.43886 -45.80466 35032 ft 421 kts 92°
2026-04-22 15:45 -16.43698 -45.74367 35031 ft 421 kts 92°
2026-04-22 15:46 -16.43507 -45.68254 35029 ft 421 kts 92°
2026-04-22 15:46 -16.43316 -45.62152 35027 ft 421 kts 92°
2026-04-22 15:47 -16.43124 -45.56051 35020 ft 421 kts 92°
2026-04-22 15:47 -16.42927 -45.49949 35010 ft 422 kts 92°
2026-04-22 15:48 -16.42728 -45.43843 35007 ft 422 kts 92°
2026-04-22 15:48 -16.42521 -45.37732 35011 ft 422 kts 92°
2026-04-22 15:49 -16.42311 -45.31612 35010 ft 422 kts 92°
2026-04-22 15:49 -16.42107 -45.25536 35009 ft 423 kts 92°
2026-04-22 15:50 -16.41900 -45.19401 34988 ft 426 kts 92°
2026-04-22 15:50 -16.41687 -45.13218 34989 ft 428 kts 92°
2026-04-22 15:51 -16.41477 -45.07017 34992 ft 429 kts 92°
2026-04-22 15:51 -16.41265 -45.00801 34995 ft 430 kts 92°
2026-04-22 15:52 -16.41045 -44.94571 34996 ft 430 kts 92°
2026-04-22 15:52 -16.40822 -44.88343 34999 ft 430 kts 92°
2026-04-22 15:53 -16.40600 -44.82111 35003 ft 431 kts 92°
2026-04-22 15:53 -16.40378 -44.75868 35011 ft 431 kts 92°
2026-04-22 15:54 -16.40150 -44.69623 35011 ft 432 kts 92°
2026-04-22 15:54 -16.39923 -44.63408 35018 ft 432 kts 92°
2026-04-22 15:55 -16.39693 -44.57158 35020 ft 432 kts 92°
2026-04-22 15:55 -16.39461 -44.50910 35024 ft 432 kts 92°
2026-04-22 15:56 -16.39230 -44.44668 35026 ft 432 kts 92°
2026-04-22 15:56 -16.38996 -44.38408 35030 ft 432 kts 92°
2026-04-22 15:57 -16.38763 -44.32143 35033 ft 432 kts 92°
2026-04-22 15:57 -16.38519 -44.25885 35033 ft 433 kts 92°
2026-04-22 15:58 -16.38270 -44.19625 35034 ft 433 kts 92°
2026-04-22 15:58 -16.38028 -44.13354 35032 ft 433 kts 92°
2026-04-22 15:59 -16.37786 -44.07087 35031 ft 433 kts 92°
2026-04-22 15:59 -16.37541 -44.00859 35033 ft 433 kts 92°
2026-04-22 16:00 -16.37287 -43.94586 35032 ft 434 kts 92°
2026-04-22 16:00 -16.37039 -43.88305 35034 ft 434 kts 92°
2026-04-22 16:01 -16.36786 -43.82025 35035 ft 434 kts 92°
2026-04-22 16:01 -16.36531 -43.75738 35030 ft 435 kts 92°
2026-04-22 16:02 -16.36273 -43.69443 35023 ft 435 kts 92°
2026-04-22 16:02 -16.36013 -43.63149 35023 ft 435 kts 92°
2026-04-22 16:03 -16.35746 -43.56860 35023 ft 435 kts 92°
2026-04-22 16:03 -16.35488 -43.50594 35029 ft 435 kts 92°
2026-04-22 16:04 -16.35229 -43.44300 35028 ft 435 kts 92°
2026-04-22 16:04 -16.34959 -43.38007 35034 ft 435 kts 92°
2026-04-22 16:05 -16.34689 -43.31713 35041 ft 435 kts 92°
2026-04-22 16:05 -16.34422 -43.25413 35048 ft 436 kts 92°
2026-04-22 16:06 -16.34144 -43.19111 35047 ft 436 kts 92°
2026-04-22 16:06 -16.33871 -43.12785 35053 ft 436 kts 92°
2026-04-22 16:07 -16.33591 -43.06515 35055 ft 436 kts 92°
2026-04-22 16:07 -16.33310 -43.00207 35058 ft 436 kts 92°
2026-04-22 16:08 -16.33031 -42.93897 35064 ft 436 kts 92°
2026-04-22 16:08 -16.32748 -42.87587 35062 ft 436 kts 92°
2026-04-22 16:09 -16.32793 -42.81311 35069 ft 429 kts 103°
2026-04-22 16:09 -16.33637 -42.75170 35071 ft 428 kts 103°
2026-04-22 16:10 -16.34455 -42.69018 35069 ft 428 kts 102°
2026-04-22 16:10 -16.35250 -42.62904 35071 ft 428 kts 102°
2026-04-22 16:11 -16.36061 -42.56766 35072 ft 428 kts 103°
2026-04-22 16:11 -16.36886 -42.50614 35071 ft 429 kts 103°
2026-04-22 16:12 -16.37703 -42.44465 35068 ft 429 kts 103°
2026-04-22 16:12 -16.38510 -42.38309 35067 ft 428 kts 103°
2026-04-22 16:13 -16.39317 -42.32159 35064 ft 429 kts 103°
2026-04-22 16:13 -16.40125 -42.26012 35059 ft 428 kts 103°
2026-04-22 16:14 -16.40929 -42.19864 35059 ft 428 kts 103°
2026-04-22 16:14 -16.41726 -42.13749 35059 ft 428 kts 103°
2026-04-22 16:15 -16.42524 -42.07594 35059 ft 428 kts 103°
2026-04-22 16:15 -16.43327 -42.01432 35054 ft 428 kts 103°
2026-04-22 16:16 -16.44114 -41.95316 35056 ft 428 kts 103°
2026-04-22 16:16 -16.44903 -41.89165 35056 ft 428 kts 103°
2026-04-22 16:17 -16.45692 -41.83023 35054 ft 428 kts 103°
2026-04-22 16:17 -16.46364 -41.76852 35061 ft 431 kts 98°
2026-04-22 16:18 -16.46578 -41.70583 35061 ft 433 kts 96°
2026-04-22 16:18 -16.46680 -41.64322 35055 ft 433 kts 96°
2026-04-22 16:19 -16.46808 -41.58057 35056 ft 432 kts 97°
2026-04-22 16:19 -16.46970 -41.51790 35056 ft 432 kts 97°
2026-04-22 16:20 -16.47134 -41.45541 35051 ft 432 kts 97°
2026-04-22 16:20 -16.47288 -41.39308 35053 ft 432 kts 97°
2026-04-22 16:21 -16.47437 -41.33035 35060 ft 433 kts 97°
2026-04-22 16:21 -16.47588 -41.26766 35058 ft 433 kts 97°
2026-04-22 16:22 -16.47807 -41.17352 35063 ft 433 kts 97°
2026-04-22 16:23 -16.48024 -41.07950 35066 ft 432 kts 97°
2026-04-22 16:23 -16.48165 -41.01720 34834 ft 431 kts 97°
2026-04-22 16:24 -16.48234 -40.98568 34601 ft 430 kts 97°
2026-04-22 16:24 -16.48369 -40.92376 33832 ft 425 kts 96°
2026-04-22 16:24 -16.48435 -40.89306 33300 ft 422 kts 96°
2026-04-22 16:25 -16.48503 -40.86256 32789 ft 420 kts 96°
2026-04-22 16:25 -16.48640 -40.80239 31785 ft 417 kts 95°
2026-04-22 16:25 -16.48706 -40.77217 31284 ft 416 kts 95°
2026-04-22 16:26 -16.48770 -40.74216 30792 ft 415 kts 95°
2026-04-22 16:26 -16.48830 -40.71204 30303 ft 415 kts 94°
2026-04-22 16:26 -16.48889 -40.68200 29784 ft 414 kts 94°
2026-04-22 16:26 -16.48951 -40.65206 29303 ft 412 kts 94°
2026-04-22 16:27 -16.48993 -40.63231 28988 ft 410 kts 94°
2026-04-22 16:27 -16.49057 -40.60269 28535 ft 407 kts 94°
2026-04-22 16:27 -16.49121 -40.57334 28079 ft 405 kts 93°
2026-04-22 16:27 -16.49182 -40.54408 27624 ft 403 kts 93°
2026-04-22 16:28 -16.49243 -40.51499 27175 ft 400 kts 92°
2026-04-22 16:28 -16.49301 -40.48617 26702 ft 393 kts 92°
2026-04-22 16:28 -16.49351 -40.45807 26084 ft 384 kts 92°
2026-04-22 16:28 -16.49402 -40.43032 25339 ft 381 kts 92°
2026-04-22 16:29 -16.49458 -40.40266 24850 ft 382 kts 91°
2026-04-22 16:29 -16.49515 -40.37504 24400 ft 380 kts 91°
2026-04-22 16:29 -16.49569 -40.34758 23961 ft 378 kts 91°
2026-04-22 16:29 -16.49621 -40.32026 23512 ft 376 kts 90°
2026-04-22 16:30 -16.49672 -40.29308 22992 ft 374 kts 90°
2026-04-22 16:30 -16.49722 -40.26595 22486 ft 373 kts 90°
2026-04-22 16:30 -16.49774 -40.23902 21990 ft 371 kts 90°
2026-04-22 16:30 -16.49826 -40.21218 21500 ft 370 kts 91°
2026-04-22 16:31 -16.49875 -40.18543 21020 ft 369 kts 91°
2026-04-22 16:31 -16.49925 -40.15882 20546 ft 368 kts 91°
2026-04-22 16:31 -16.49975 -40.13216 20079 ft 367 kts 91°
2026-04-22 16:31 -16.50023 -40.10570 19622 ft 366 kts 91°
2026-04-22 16:32 -16.50068 -40.07926 19165 ft 364 kts 91°
2026-04-22 16:32 -16.50114 -40.05290 18720 ft 363 kts 91°
2026-04-22 16:32 -16.50159 -40.02689 18272 ft 362 kts 91°
2026-04-22 16:32 -16.50206 -40.00032 17742 ft 362 kts 91°
2026-04-22 16:33 -16.50252 -39.97449 17250 ft 361 kts 90°
2026-04-22 16:33 -16.50301 -39.94832 16753 ft 361 kts 90°
2026-04-22 16:33 -16.50349 -39.92216 16264 ft 361 kts 89°
2026-04-22 16:33 -16.50394 -39.89599 15783 ft 361 kts 89°
2026-04-22 16:34 -16.50436 -39.86983 15311 ft 361 kts 89°
2026-04-22 16:34 -16.50482 -39.84369 14837 ft 361 kts 89°
2026-04-22 16:34 -16.50529 -39.81758 14375 ft 360 kts 89°
2026-04-22 16:34 -16.50571 -39.79150 13924 ft 360 kts 89°
2026-04-22 16:35 -16.50612 -39.76546 13419 ft 359 kts 89°
2026-04-22 16:35 -16.50654 -39.73949 12906 ft 358 kts 89°
2026-04-22 16:35 -16.50699 -39.71368 12402 ft 352 kts 89°
2026-04-22 16:35 -16.50743 -39.68868 11909 ft 338 kts 89°
2026-04-22 16:36 -16.50783 -39.66468 11430 ft 325 kts 89°
2026-04-22 16:36 -16.50821 -39.64157 10955 ft 314 kts 89°
2026-04-22 16:36 -16.50859 -39.61916 10487 ft 304 kts 89°
2026-04-22 16:36 -16.50895 -39.59732 10014 ft 299 kts 90°
2026-04-22 16:37 -16.50928 -39.57599 9530 ft 290 kts 90°
2026-04-22 16:37 -16.50960 -39.55533 9024 ft 281 kts 90°
2026-04-22 16:37 -16.50990 -39.53530 8532 ft 272 kts 91°
2026-04-22 16:37 -16.51019 -39.51591 8090 ft 263 kts 91°
2026-04-22 16:38 -16.51047 -39.49716 7660 ft 255 kts 91°
2026-04-22 16:38 -16.51074 -39.47899 7227 ft 247 kts 91°
2026-04-22 16:38 -16.51099 -39.46138 6797 ft 240 kts 91°
2026-04-22 16:38 -16.51122 -39.44422 6383 ft 237 kts 92°
2026-04-22 16:39 -16.51146 -39.42700 5942 ft 236 kts 92°
2026-04-22 16:39 -16.51168 -39.41005 5548 ft 231 kts 92°
2026-04-22 16:39 -16.51190 -39.39355 5160 ft 226 kts 92°
2026-04-22 16:39 -16.51213 -39.37735 4775 ft 221 kts 93°
2026-04-22 16:40 -16.51230 -39.36154 4380 ft 217 kts 91°
2026-04-22 16:40 -16.50979 -39.34613 3983 ft 216 kts 77°
2026-04-22 16:40 -16.50177 -39.31665 3268 ft 205 kts 78°
2026-04-22 16:41 -16.49803 -39.30280 2906 ft 197 kts 78°
2026-04-22 16:41 -16.49439 -39.28924 2538 ft 192 kts 78°
2026-04-22 16:41 -16.49084 -39.27597 2168 ft 188 kts 77°
2026-04-22 16:41 -16.48736 -39.26307 2002 ft 179 kts 78°
2026-04-22 16:42 -16.48417 -39.25126 1990 ft 167 kts 78°
2026-04-22 16:42 -16.48102 -39.23944 2006 ft 168 kts 79°
2026-04-22 16:42 -16.47793 -39.22791 2002 ft 156 kts 79°
2026-04-22 16:42 -16.47509 -39.21741 2006 ft 147 kts 79°
2026-04-22 16:43 -16.47237 -39.20729 2009 ft 144 kts 78°
2026-04-22 16:43 -16.46968 -39.19726 2005 ft 144 kts 80°
2026-04-22 16:43 -16.46700 -39.18726 2015 ft 142 kts 80°
2026-04-22 16:43 -16.46433 -39.17737 2005 ft 142 kts 79°
2026-04-22 16:44 -16.46165 -39.16734 1989 ft 144 kts 79°
2026-04-22 16:44 -16.45901 -39.15729 1861 ft 142 kts 79°
2026-04-22 16:44 -16.45621 -39.14746 1720 ft 140 kts 79°
2026-04-22 16:44 -16.45354 -39.13795 1462 ft 138 kts 79°
2026-04-22 16:45 -16.45105 -39.12831 1218 ft 138 kts 78°
2026-04-22 16:45 -16.44826 -39.11887 987 ft 136 kts 79°
2026-04-22 16:45 -16.44586 -39.10915 732 ft 139 kts 79°
2026-04-22 16:45 -16.44342 -39.09943 487 ft 137 kts 78°
2026-04-22 16:46 -16.44081 -39.08974 236 ft 140 kts 78°
2026-04-22 16:46 -16.43842 -39.08059 161 ft 117 kts 76°
2026-04-22 16:46 -16.43693 -39.07491 163 ft 39 kts 74°
2026-04-22 16:46 -16.43636 -39.07272 161 ft 25 kts 81°
2026-04-22 16:47 -16.43613 -39.07205 160 ft 6 kts 320°
2026-04-22 16:47 -16.43621 -39.07236 161 ft 5 kts 251°
2026-04-22 16:47 -16.43639 -39.07298 161 ft 15 kts 254°
2026-04-22 16:47 -16.43673 -39.07423 163 ft 18 kts 254°
2026-04-22 16:48 -16.43707 -39.07551 162 ft 19 kts 255°
2026-04-22 16:48 -16.43744 -39.07690 162 ft 21 kts 254°
2026-04-22 16:48 -16.43786 -39.07844 161 ft 24 kts 254°
2026-04-22 16:48 -16.43830 -39.08002 159 ft 22 kts 255°
2026-04-22 16:49 -16.43860 -39.08118 160 ft 9 kts 247°
2026-04-22 16:49 -16.43906 -39.08141 160 ft 8 kts 163°
2026-04-22 16:49 -16.43962 -39.08123 160 ft 9 kts 163°
2026-04-22 16:49 -16.44027 -39.08105 160 ft 10 kts 165°
2026-04-22 16:50 -16.44064 -39.08094 160 ft 0 kts 165°
2026-04-22 16:50 -16.44066 -39.08093 160 ft 0 kts 165°